| time (UTC) | temp C | wind direction | speed KPH | gust KPH | rain 1hr cm | rain 24hr cm | rain mn cm | humidity % | barometer mb |
| 20260503175750 | 18 | 29 | 3.2 | 4.8 | 0.00 | 0.00 | 0.00 | 39 | 1012.3 |
| 20260503175249 | 18 | 233 | 4.8 | 9.7 | 0.00 | 0.00 | 0.00 | 43 | 1012.7 |
| 20260503174744 | 17 | 9 | 4.8 | 4.8 | 0.00 | 0.00 | 0.00 | 38 | 1012.4 |
| 20260503174242 | 16 | 64 | 3.2 | 4.8 | 0.00 | 0.00 | 0.00 | 45 | 1012.7 |
| 20260503173742 | 17 | 206 | 4.8 | 8.0 | 0.00 | 0.00 | 0.00 | 45 | 1012.8 |
| 20260503173238 | 16 | 147 | 3.2 | 3.2 | 0.00 | 0.00 | 0.00 | 45 | 1013.0 |
| 20260503172736 | 16 | 215 | 4.8 | 8.0 | 0.00 | 0.00 | 0.00 | 45 | 1013.1 |
| 20260503172233 | 16 | 44 | 4.8 | 8.0 | 0.00 | 0.00 | 0.00 | 43 | 1013.0 |
| 20260503171729 | 16 | 71 | 8.0 | 11.3 | 0.00 | 0.00 | 0.00 | 42 | 1013.2 |
| 20260503171226 | 16 | 319 | 8.0 | 11.3 | 0.00 | 0.00 | 0.00 | 44 | 1013.1 |
| 20260503170723 | 16 | 227 | 4.8 | 9.7 | 0.00 | 0.00 | 0.00 | 43 | 1013.3 |
| 20260503170220 | 15 | 213 | 3.2 | 4.8 | 0.00 | 0.00 | 0.00 | 48 | 1013.2 |
| 20260503160136 | 12 | 230 | 1.6 | 1.6 | 0.00 | 0.00 | 0.00 | 49 | 1014.3 |
| 20260503150606 | 12 | 199 | 3.2 | 3.2 | 0.00 | 0.00 | 0.00 | 46 | 1014.7 |
| 20260503130956 | 11 | 137 | 3.2 | 4.8 | 0.00 | 0.00 | 0.00 | 52 | 1014.8 |
| 20260503130454 | 11 | 303 | 1.6 | 3.2 | 0.00 | 0.00 | 0.00 | 50 | 1014.8 |
| 20260503110338 | 2 | 267 | 1.6 | 1.6 | 0.00 | 0.00 | 0.00 | 70 | 1014.9 |
| 20260503090224 | 0 | 259 | 0.0 | 0.0 | 0.00 | 0.00 | 0.00 | 80 | 1015.7 |
| 20260503081156 | 0 | 244 | 0.0 | 0.0 | 0.00 | 0.00 | 0.00 | 71 | 1015.8 |
| 20260503080652 | 0 | 260 | 0.0 | 0.0 | 0.00 | 0.00 | 0.00 | 71 | 1016.0 |
| 20260503080150 | 0 | 266 | 0.0 | 0.0 | 0.00 | 0.00 | 0.00 | 70 | 1015.6 |
| 20260503072626 | 1 | 262 | 0.0 | 0.0 | 0.00 | 0.00 | 0.00 | 68 | 1015.9 |
| 20260503072123 | 1 | 257 | 0.0 | 0.0 | 0.00 | 0.00 | 0.00 | 68 | 1016.1 |
| 20260503071620 | 1 | 257 | 0.0 | 0.0 | 0.00 | 0.00 | 0.00 | 68 | 1016.0 |
| 20260503071116 | 1 | 259 | 0.0 | 0.0 | 0.00 | 0.00 | 0.00 | 68 | 1016.2 |
| 20260503070614 | 1 | 250 | 0.0 | 0.0 | 0.00 | 0.00 | 0.00 | 69 | 1016.1 |
| 20260503070112 | 1 | 260 | 0.0 | 0.0 | 0.00 | 0.00 | 0.00 | 70 | 1016.0 |
| 20260503055032 | 1 | 258 | 0.0 | 0.0 | 0.00 | 0.00 | 0.00 | 72 | 1016.3 |
| 20260503054528 | 1 | 258 | 0.0 | 0.0 | 0.00 | 0.00 | 0.00 | 73 | 1016.8 |
| 20260503054026 | 1 | 261 | 0.0 | 0.0 | 0.00 | 0.00 | 0.00 | 74 | 1016.7 |
| 20260503053523 | 1 | 258 | 0.0 | 0.0 | 0.00 | 0.00 | 0.00 | 74 | 1016.8 |
| 20260503053021 | 1 | 254 | 0.0 | 0.0 | 0.00 | 0.00 | 0.00 | 75 | 1016.7 |
| 20260503052518 | 1 | 261 | 0.0 | 0.0 | 0.00 | 0.00 | 0.00 | 76 | 1016.9 |
| 20260503052014 | 1 | 263 | 0.0 | 0.0 | 0.00 | 0.00 | 0.00 | 76 | 1016.8 |
| 20260503051509 | 1 | 264 | 0.0 | 0.0 | 0.00 | 0.00 | 0.00 | 76 | 1017.1 |
| 20260503051007 | 1 | 261 | 0.0 | 0.0 | 0.00 | 0.00 | 0.00 | 75 | 1016.9 |
| 20260503050503 | 1 | 261 | 0.0 | 0.0 | 0.00 | 0.00 | 0.00 | 74 | 1017.0 |
| 20260503050001 | 1 | 260 | 0.0 | 0.0 | 0.00 | 0.00 | 0.00 | 74 | 1016.9 |
| 20260503045458 | 1 | 260 | 0.0 | 0.0 | 0.00 | 0.00 | 0.00 | 74 | 1017.0 |
| 20260503044955 | 1 | 261 | 0.0 | 0.0 | 0.00 | 0.00 | 0.00 | 73 | 1016.9 |
| 20260503044451 | 1 | 259 | 0.0 | 0.0 | 0.00 | 0.00 | 0.00 | 73 | 1016.7 |
| 20260503043949 | 1 | 261 | 0.0 | 0.0 | 0.00 | 0.00 | 0.00 | 72 | 1017.3 |
| 20260503043444 | 1 | 260 | 0.0 | 0.0 | 0.00 | 0.00 | 0.00 | 73 | 1016.9 |
| 20260503042941 | 1 | 261 | 0.0 | 0.0 | 0.00 | 0.00 | 0.00 | 73 | 1017.2 |
| 20260503042438 | 1 | 255 | 0.0 | 0.0 | 0.00 | 0.00 | 0.00 | 73 | 1017.0 |
| 20260503041935 | 1 | 262 | 0.0 | 0.0 | 0.00 | 0.00 | 0.00 | 73 | 1017.1 |
| 20260503041431 | 1 | 264 | 0.0 | 0.0 | 0.00 | 0.00 | 0.00 | 73 | 1017.0 |
| 20260503040929 | 1 | 256 | 0.0 | 0.0 | 0.00 | 0.00 | 0.00 | 74 | 1017.2 |
| 20260503040426 | 1 | 264 | 0.0 | 0.0 | 0.00 | 0.00 | 0.00 | 74 | 1017.2 |
| 20260503035924 | 1 | 257 | 0.0 | 0.0 | 0.00 | 0.00 | 0.00 | 75 | 1017.2 |
| 20260503035420 | 1 | 260 | 0.0 | 0.0 | 0.00 | 0.00 | 0.00 | 75 | 1017.0 |
| 20260503034918 | 1 | 262 | 0.0 | 0.0 | 0.00 | 0.00 | 0.00 | 75 | 1017.0 |
| 20260503034415 | 1 | 257 | 0.0 | 0.0 | 0.00 | 0.00 | 0.00 | 75 | 1017.2 |
| 20260503033912 | 1 | 263 | 0.0 | 0.0 | 0.00 | 0.00 | 0.00 | 75 | 1017.2 |
| 20260503033410 | 1 | 267 | 0.0 | 0.0 | 0.00 | 0.00 | 0.00 | 75 | 1017.2 |
| 20260503032907 | 1 | 273 | 0.0 | 0.0 | 0.00 | 0.00 | 0.00 | 75 | 1017.2 |
| 20260503032406 | 1 | 260 | 0.0 | 0.0 | 0.00 | 0.00 | 0.00 | 74 | 1017.3 |
| 20260503031903 | 1 | 257 | 0.0 | 0.0 | 0.00 | 0.00 | 0.00 | 74 | 1017.2 |
| 20260503031401 | 1 | 257 | 0.0 | 0.0 | 0.00 | 0.00 | 0.00 | 74 | 1017.3 |
| 20260503030857 | 1 | 263 | 0.0 | 0.0 | 0.00 | 0.00 | 0.00 | 74 | 1017.4 |
| 20260503030353 | 1 | 262 | 0.0 | 0.0 | 0.00 | 0.00 | 0.00 | 74 | 1017.2 |
| 20260503025850 | 1 | 262 | 0.0 | 0.0 | 0.00 | 0.00 | 0.00 | 74 | 1017.5 |
| 20260503025347 | 1 | 262 | 0.0 | 0.0 | 0.00 | 0.00 | 0.00 | 73 | 1017.3 |
| 20260503024845 | 1 | 261 | 0.0 | 0.0 | 0.00 | 0.00 | 0.00 | 73 | 1017.4 |
| 20260503024341 | 1 | 262 | 0.0 | 0.0 | 0.00 | 0.00 | 0.00 | 72 | 1017.6 |
| 20260503023838 | 2 | 261 | 0.0 | 0.0 | 0.00 | 0.00 | 0.00 | 72 | 1017.3 |
| 20260503023335 | 2 | 262 | 0.0 | 0.0 | 0.00 | 0.00 | 0.00 | 71 | 1017.5 |
| 20260503022832 | 2 | 261 | 0.0 | 0.0 | 0.00 | 0.00 | 0.00 | 72 | 1017.5 |
| 20260503022326 | 2 | 261 | 0.0 | 0.0 | 0.00 | 0.00 | 0.00 | 71 | 1017.9 |
| 20260503021823 | 2 | 261 | 0.0 | 0.0 | 0.00 | 0.00 | 0.00 | 71 | 1017.2 |
| 20260503021319 | 2 | 261 | 0.0 | 0.0 | 0.00 | 0.00 | 0.00 | 71 | 1017.5 |
| 20260503020817 | 2 | 261 | 0.0 | 0.0 | 0.00 | 0.00 | 0.00 | 70 | 1017.4 |
| 20260503020315 | 2 | 262 | 0.0 | 0.0 | 0.00 | 0.00 | 0.00 | 70 | 1017.3 |
| 20260503015811 | 2 | 261 | 0.0 | 0.0 | 0.00 | 0.00 | 0.00 | 69 | 1017.4 |
| 20260503015308 | 2 | 261 | 0.0 | 0.0 | 0.00 | 0.00 | 0.00 | 69 | 1017.5 |
| 20260503014804 | 3 | 261 | 0.0 | 0.0 | 0.00 | 0.00 | 0.00 | 68 | 1017.3 |
| 20260503014301 | 3 | 262 | 0.0 | 0.0 | 0.00 | 0.00 | 0.00 | 68 | 1017.4 |
| 20260503013758 | 3 | 262 | 0.0 | 0.0 | 0.00 | 0.00 | 0.00 | 67 | 1017.4 |
| 20260503013256 | 3 | 262 | 0.0 | 0.0 | 0.00 | 0.00 | 0.00 | 65 | 1017.5 |
| 20260503012753 | 3 | 262 | 0.0 | 0.0 | 0.00 | 0.00 | 0.00 | 65 | 1017.2 |
| 20260503012250 | 3 | 262 | 0.0 | 0.0 | 0.00 | 0.00 | 0.00 | 65 | 1017.4 |
| 20260503011747 | 3 | 262 | 0.0 | 0.0 | 0.00 | 0.00 | 0.00 | 64 | 1017.4 |
| 20260503011244 | 4 | 262 | 0.0 | 0.0 | 0.00 | 0.00 | 0.00 | 63 | 1017.4 |
| 20260503010740 | 4 | 265 | 0.0 | 0.0 | 0.00 | 0.00 | 0.00 | 63 | 1017.1 |
| 20260503010237 | 5 | 265 | 0.0 | 0.0 | 0.00 | 0.00 | 0.00 | 62 | 1017.3 |
| 20260503005735 | 5 | 257 | 0.0 | 0.0 | 0.00 | 0.00 | 0.00 | 61 | 1017.1 |
| 20260503005232 | 5 | 257 | 0.0 | 0.0 | 0.00 | 0.00 | 0.00 | 60 | 1017.0 |
| 20260503004727 | 6 | 257 | 0.0 | 0.0 | 0.00 | 0.00 | 0.00 | 59 | 1017.3 |
| 20260503004226 | 6 | 253 | 0.0 | 0.0 | 0.00 | 0.00 | 0.00 | 58 | 1017.0 |
| 20260503003723 | 6 | 253 | 0.0 | 0.0 | 0.00 | 0.00 | 0.00 | 56 | 1017.0 |
| 20260503003220 | 7 | 261 | 0.0 | 0.0 | 0.00 | 0.00 | 0.00 | 54 | 1017.1 |
| 20260503002716 | 7 | 272 | 0.0 | 1.6 | 0.00 | 0.00 | 0.00 | 54 | 1017.0 |
| 20260503002213 | 7 | 260 | 0.0 | 0.0 | 0.00 | 0.00 | 0.00 | 53 | 1017.0 |
| 20260503001709 | 7 | 264 | 0.0 | 0.0 | 0.00 | 0.00 | 0.00 | 51 | 1016.8 |
| 20260503001206 | 8 | 249 | 0.0 | 1.6 | 0.00 | 0.00 | 0.00 | 51 | 1017.2 |
| 20260503000704 | 8 | 256 | 0.0 | 1.6 | 0.00 | 0.00 | 0.00 | 50 | 1017.0 |
| 20260503000203 | 8 | 51 | 1.6 | 1.6 | 0.00 | 0.00 | 0.00 | 49 | 1016.9 |
| 20260502235658 | 8 | 257 | 0.0 | 1.6 | 0.00 | 0.00 | 0.00 | 49 | 1017.0 |
| 20260502235156 | 8 | 254 | 0.0 | 1.6 | 0.00 | 0.00 | 0.00 | 50 | 1017.1 |
| 20260502234652 | 8 | 62 | 1.6 | 3.2 | 0.00 | 0.00 | 0.00 | 49 | 1017.0 |
| 20260502234149 | 8 | 253 | 0.0 | 0.0 | 0.00 | 0.00 | 0.00 | 50 | 1017.1 |
| 20260502233644 | 8 | 23 | 1.6 | 1.6 | 0.00 | 0.00 | 0.00 | 48 | 1017.1 |
| 20260502233136 | 8 | 20 | 3.2 | 3.2 | 0.00 | 0.00 | 0.00 | 48 | 1016.9 |
| 20260502232632 | 8 | 359 | 1.6 | 3.2 | 0.00 | 0.00 | 0.00 | 46 | 1017.0 |
| 20260502232130 | 8 | 257 | 1.6 | 1.6 | 0.00 | 0.00 | 0.00 | 48 | 1017.2 |
| 20260502231626 | 8 | 40 | 3.2 | 3.2 | 0.00 | 0.00 | 0.00 | 47 | 1017.2 |
| 20260502231124 | 8 | 45 | 3.2 | 3.2 | 0.00 | 0.00 | 0.00 | 48 | 1017.1 |
| 20260502230622 | 8 | 256 | 1.6 | 1.6 | 0.00 | 0.00 | 0.00 | 48 | 1017.2 |
| 20260502230120 | 8 | 241 | 4.8 | 4.8 | 0.00 | 0.00 | 0.00 | 46 | 1017.1 |
| 20260502225615 | 8 | 338 | 4.8 | 8.0 | 0.00 | 0.00 | 0.00 | 46 | 1017.3 |
| 20260502225113 | 8 | 324 | 1.6 | 1.6 | 0.00 | 0.00 | 0.00 | 45 | 1017.3 |
| 20260502224609 | 8 | 46 | 1.6 | 3.2 | 0.00 | 0.00 | 0.00 | 46 | 1017.4 |
| 20260502224106 | 8 | 299 | 3.2 | 4.8 | 0.00 | 0.00 | 0.00 | 46 | 1017.2 |
| 20260502223604 | 8 | 52 | 4.8 | 4.8 | 0.00 | 0.00 | 0.00 | 46 | 1017.3 |
| 20260502223102 | 9 | 258 | 0.0 | 1.6 | 0.00 | 0.00 | 0.00 | 46 | 1017.5 |
| 20260502222559 | 8 | 262 | 1.6 | 1.6 | 0.00 | 0.00 | 0.00 | 46 | 1017.2 |
| 20260502222055 | 8 | 54 | 3.2 | 3.2 | 0.00 | 0.00 | 0.00 | 46 | 1017.4 |
| 20260502221551 | 8 | 46 | 4.8 | 4.8 | 0.00 | 0.00 | 0.00 | 46 | 1017.4 |
| 20260502221049 | 8 | 252 | 1.6 | 1.6 | 0.00 | 0.00 | 0.00 | 46 | 1017.3 |
| 20260502220544 | 8 | 16 | 3.2 | 3.2 | 0.00 | 0.00 | 0.00 | 45 | 1017.3 |
| 20260502220041 | 8 | 46 | 8.0 | 11.3 | 0.00 | 0.00 | 0.00 | 45 | 1017.2 |
| 20260502215538 | 8 | 272 | 1.6 | 3.2 | 0.00 | 0.00 | 0.00 | 45 | 1017.2 |
| 20260502215035 | 8 | 333 | 3.2 | 4.8 | 0.00 | 0.00 | 0.00 | 45 | 1017.5 |
| 20260502214532 | 10 | 48 | 4.8 | 4.8 | 0.00 | 0.00 | 0.00 | 44 | 1017.3 |
| 20260502214030 | 10 | 357 | 3.2 | 3.2 | 0.00 | 0.00 | 0.00 | 43 | 1017.4 |
| 20260502213526 | 8 | 334 | 4.8 | 4.8 | 0.00 | 0.00 | 0.00 | 45 | 1017.4 |
| 20260502213024 | 8 | 278 | 0.0 | 1.6 | 0.00 | 0.00 | 0.00 | 46 | 1017.7 |
| 20260502212523 | 9 | 257 | 1.6 | 1.6 | 0.00 | 0.00 | 0.00 | 45 | 1017.5 |
| 20260502212020 | 9 | 251 | 1.6 | 1.6 | 0.00 | 0.00 | 0.00 | 46 | 1017.6 |
| 20260502211515 | 8 | 265 | 1.6 | 3.2 | 0.00 | 0.00 | 0.00 | 46 | 1017.5 |
| 20260502211013 | 8 | 41 | 3.2 | 3.2 | 0.00 | 0.00 | 0.00 | 46 | 1017.5 |
| 20260502210510 | 10 | 92 | 4.8 | 8.0 | 0.00 | 0.00 | 0.00 | 45 | 1017.4 |
| 20260502210007 | 8 | 273 | 1.6 | 1.6 | 0.00 | 0.00 | 0.00 | 46 | 1017.6 |
| 20260502205503 | 8 | 26 | 6.4 | 8.0 | 0.00 | 0.00 | 0.00 | 45 | 1017.5 |
| 20260502205000 | 8 | 206 | 0.0 | 1.6 | 0.00 | 0.00 | 0.00 | 48 | 1017.7 |
| 20260502204457 | 9 | 239 | 1.6 | 3.2 | 0.00 | 0.00 | 0.00 | 47 | 1017.7 |
| 20260502203955 | 8 | 53 | 4.8 | 8.0 | 0.00 | 0.00 | 0.00 | 48 | 1017.7 |
| 20260502203452 | 8 | 46 | 4.8 | 8.0 | 0.00 | 0.00 | 0.00 | 44 | 1017.6 |
| 20260502202948 | 8 | 162 | 1.6 | 1.6 | 0.00 | 0.00 | 0.00 | 50 | 1017.7 |
| 20260502202445 | 8 | 337 | 6.4 | 9.7 | 0.00 | 0.00 | 0.00 | 46 | 1017.8 |
| 20260502201943 | 8 | 295 | 1.6 | 3.2 | 0.00 | 0.00 | 0.00 | 46 | 1017.7 |
| 20260502201439 | 8 | 87 | 6.4 | 8.0 | 0.00 | 0.00 | 0.00 | 46 | 1017.9 |
| 20260502200936 | 8 | 30 | 3.2 | 4.8 | 0.00 | 0.00 | 0.00 | 47 | 1017.7 |
| 20260502200431 | 9 | 301 | 4.8 | 8.0 | 0.00 | 0.00 | 0.00 | 45 | 1018.0 |
| 20260502195929 | 8 | 307 | 4.8 | 8.0 | 0.00 | 0.00 | 0.00 | 46 | 1018.1 |
| 20260502195426 | 8 | 57 | 8.0 | 9.7 | 0.00 | 0.00 | 0.00 | 46 | 1018.1 |
| 20260502194923 | 8 | 300 | 1.6 | 1.6 | 0.00 | 0.00 | 0.00 | 47 | 1018.1 |
| 20260502194420 | 8 | 24 | 8.0 | 11.3 | 0.00 | 0.00 | 0.00 | 47 | 1018.2 |
| 20260502193915 | 8 | 265 | 0.0 | 0.0 | 0.00 | 0.00 | 0.00 | 47 | 1018.4 |
| 20260502193413 | 8 | 320 | 1.6 | 3.2 | 0.00 | 0.00 | 0.00 | 45 | 1018.3 |
| 20260502192908 | 8 | 44 | 4.8 | 4.8 | 0.00 | 0.00 | 0.00 | 45 | 1018.3 |
| 20260502192405 | 8 | 21 | 1.6 | 1.6 | 0.00 | 0.00 | 0.00 | 48 | 1018.6 |
| 20260502191902 | 8 | 57 | 3.2 | 3.2 | 0.00 | 0.00 | 0.00 | 47 | 1018.7 |
| 20260502191400 | 8 | 76 | 3.2 | 8.0 | 0.00 | 0.00 | 0.00 | 49 | 1018.6 |
| 20260502190858 | 8 | 279 | 1.6 | 3.2 | 0.00 | 0.00 | 0.00 | 46 | 1018.3 |
| 20260502190354 | 10 | 40 | 3.2 | 3.2 | 0.00 | 0.00 | 0.00 | 44 | 1018.7 |
| 20260502185850 | 10 | 69 | 4.8 | 4.8 | 0.00 | 0.00 | 0.00 | 43 | 1018.6 |
| 20260502185346 | 10 | 280 | 3.2 | 3.2 | 0.00 | 0.00 | 0.00 | 50 | 1018.6 |
| 20260502184843 | 8 | 71 | 3.2 | 4.8 | 0.00 | 0.00 | 0.00 | 48 | 1018.8 |
| 20260502184339 | 8 | 170 | 3.2 | 4.8 | 0.00 | 0.00 | 0.00 | 46 | 1018.5 |
| 20260502183835 | 9 | 342 | 3.2 | 3.2 | 0.00 | 0.00 | 0.00 | 45 | 1018.6 |
| 20260502183332 | 8 | 49 | 6.4 | 8.0 | 0.00 | 0.00 | 0.00 | 45 | 1018.6 |
| 20260502182827 | 8 | 2 | 0.0 | 1.6 | 0.00 | 0.00 | 0.00 | 46 | 1018.6 |
| 20260502182322 | 10 | 35 | 4.8 | 4.8 | 0.00 | 0.00 | 0.00 | 43 | 1018.7 |
| 20260502181819 | 11 | 284 | 3.2 | 4.8 | 0.00 | 0.00 | 0.00 | 43 | 1018.6 |
| 20260502181318 | 10 | 43 | 8.0 | 11.3 | 0.00 | 0.00 | 0.00 | 43 | 1018.6 |
| 20260502180816 | 8 | 50 | 4.8 | 4.8 | 0.00 | 0.00 | 0.00 | 43 | 1018.9 |
| 20260502180313 | 9 | 82 | 1.6 | 1.6 | 0.00 | 0.00 | 0.00 | 45 | 1018.7 |